West Yellowstone, MT

4:02 AM MST on December 03, 2016 (GMT -0700)
Yellowstone

Weather History for KWYS - November, 2013

Change the Weather History Date:

Tuesday, November 5, 2013

  Actual Average Record
Temperature  
Mean Temperature 10 °F -  
Max Temperature 23 °F 40 °F 57 °F (2010)
Min Temperature -2 °F 19 °F -2 °F (2013)
Degree Days  
Heating Degree Days 54    
Moisture  
Dew Point 11 °F    
Average Humidity 87    
Maximum Humidity 93    
Minimum Humidity 80    
Precipitation  
Precipitation 0.00 in - - ()
Sea Level Pressure  
Sea Level Pressure 30.12 in    
Wind  
Wind Speed 5 mph (SW)    
Max Wind Speed 17 mph    
Max Gust Speed 29 mph    
Visibility 8 miles    
Events Snow    
Averages and records for this station are not official NWS values.
T = Trace of Precipitation, MM = Missing Value Source: NWS Daily Summary

Daily Weather History Graph

Daily Weather History Graph

Search for Another Location

Airport or City:

Trip Planner

Search our weather history database for the weather conditions in past years. The results will help you decide how hot, cold, wet, or windy it might be!

Date:

Astronomy

Nov. 05, 2013 Rise Set
Actual Time 7:08 AM MST 5:07 PM MST
Civil Twilight 6:37 AM MST 5:38 PM MST
Nautical Twilight 6:02 AM MST 6:12 PM MST
Astronomical Twilight 5:28 AM MST 6:46 PM MST
Moon 9:30 AM MST (11/5) 7:08 PM MST (11/5)
Length of Visible Light 11h 00m
Length of Day
9h 59m
Waxing Crescent, 7% of the Moon is Illuminated
Nov 5
Waxing Crescent
Nov 9
First Quarter
Nov 17
Full
Nov 25
Last Quarter
Dec 2
New

Hourly Weather History & Observations

Time (MST) Temp. Windchill Dew Point Humidity Pressure Visibility Wind Dir Wind Speed Gust Speed Precip Events Conditions
12:10 AM 6.8 °F - 3.2 °F 85% 30.03 in 10.0 mi Calm Calm - N/A   Mostly Cloudy
12:30 AM 5.0 °F - 1.4 °F 85% 30.04 in 10.0 mi Calm Calm - N/A Snow Light Snow
12:50 AM 5.0 °F - 1.4 °F 85% 30.04 in 10.0 mi Calm Calm - N/A Snow Light Snow
1:10 AM 6.8 °F -0.1 °F 3.2 °F 85% 30.04 in 9.0 mi ENE 3.5 mph - N/A Snow Light Snow
1:30 AM 6.8 °F - 5.0 °F 92% 30.04 in 10.0 mi Calm Calm - N/A Snow Light Snow
1:50 AM 6.8 °F - 5.0 °F 92% 30.03 in 10.0 mi Calm Calm - N/A   Overcast
2:10 AM 6.8 °F -0.1 °F 3.2 °F 85% 30.03 in 10.0 mi West 3.5 mph - N/A   Overcast
2:30 AM 5.0 °F - 1.4 °F 85% 30.03 in 10.0 mi Calm Calm - N/A   Scattered Clouds
2:50 AM 1.4 °F - -0.4 °F 92% 30.04 in 10.0 mi Calm Calm - N/A   Clear
3:10 AM -0.4 °F - -2.2 °F 92% 30.04 in 10.0 mi Calm Calm - N/A   Clear
3:30 AM -0.4 °F - -2.2 °F 92% 30.04 in 10.0 mi Calm Calm - N/A   Mostly Cloudy
3:50 AM 1.4 °F - -0.4 °F 92% 30.05 in 10.0 mi Calm Calm - N/A   Overcast
4:10 AM 3.2 °F -4.2 °F -0.4 °F 85% 30.05 in 10.0 mi South 3.5 mph - N/A   Mostly Cloudy
4:30 AM 1.4 °F - -0.4 °F 92% 30.05 in 10.0 mi Calm Calm - N/A   Mostly Cloudy
4:50 AM 3.2 °F - -0.4 °F 85% 30.06 in 10.0 mi Calm Calm - N/A   Mostly Cloudy
5:10 AM 5.0 °F - 1.4 °F 85% 30.06 in 10.0 mi Calm Calm - N/A   Mostly Cloudy
5:30 AM 1.4 °F - -0.4 °F 92% 30.06 in 10.0 mi Calm Calm - N/A   Overcast
5:50 AM 3.2 °F - -0.4 °F 85% 30.07 in 10.0 mi Calm Calm - N/A   Mostly Cloudy
6:10 AM 1.4 °F - -0.4 °F 92% 30.07 in 10.0 mi Calm Calm - N/A   Mostly Cloudy
6:30 AM -0.4 °F - -2.2 °F 92% 30.07 in 10.0 mi Calm Calm - N/A   Scattered Clouds
6:50 AM -2.2 °F - -4.0 °F 92% 30.07 in 10.0 mi Calm Calm - N/A   Scattered Clouds
7:10 AM -0.4 °F - -4.0 °F 85% 30.08 in 10.0 mi Calm Calm - N/A Snow Light Snow
7:30 AM 1.4 °F - -0.4 °F 92% 30.09 in 10.0 mi Calm Calm - N/A   Mostly Cloudy
7:50 AM 5.0 °F -4.1 °F 1.4 °F 85% 30.11 in 10.0 mi NE 4.6 mph - N/A   Mostly Cloudy
8:10 AM 8.6 °F - 5.0 °F 85% 30.11 in 10.0 mi Calm Calm - N/A Snow Light Snow
8:30 AM 14.0 °F 5.1 °F 10.4 °F 86% 30.12 in 5.0 mi SSW 5.8 mph - N/A Snow Light Snow
8:50 AM 17.6 °F 7.3 °F 14.0 °F 86% 30.12 in 7.0 mi SW 8.1 mph - N/A   Mostly Cloudy
9:10 AM 17.6 °F 6.4 °F 15.8 °F 93% 30.12 in 10.0 mi SSW 9.2 mph - N/A   Overcast
9:30 AM 19.4 °F 7.2 °F 15.8 °F 86% 30.12 in 10.0 mi SSW 11.5 mph - N/A   Overcast
9:50 AM 19.4 °F 6.6 °F 15.8 °F 86% 30.13 in 10.0 mi SW 12.7 mph 18.4 mph N/A   Mostly Cloudy
10:10 AM 19.4 °F 6.0 °F 15.8 °F 86% 30.13 in 8.0 mi SW 13.8 mph 20.7 mph N/A   Mostly Cloudy
10:30 AM 21.2 °F 7.3 °F 17.6 °F 86% 30.13 in 10.0 mi SW 16.1 mph 21.9 mph N/A   Mostly Cloudy
10:50 AM 19.4 °F 5.0 °F 15.8 °F 86% 30.14 in 9.0 mi SSW 16.1 mph 23.0 mph N/A   Mostly Cloudy
11:10 AM 19.4 °F 8.6 °F 15.8 °F 86% 30.14 in 8.0 mi SSW 9.2 mph 17.3 mph N/A   Mostly Cloudy
11:30 AM 19.4 °F 7.2 °F 15.8 °F 86% 30.14 in 9.0 mi SW 11.5 mph 21.9 mph N/A   Mostly Cloudy
11:50 AM 19.4 °F 5.5 °F 15.8 °F 86% 30.14 in 7.0 mi SSW 15.0 mph 25.3 mph N/A   Mostly Cloudy
12:10 PM 19.4 °F 5.0 °F 15.8 °F 86% 30.14 in 7.0 mi SSW 16.1 mph 20.7 mph N/A   Mostly Cloudy
12:30 PM 19.4 °F 5.0 °F 15.8 °F 86% 30.13 in 7.0 mi SSW 16.1 mph 26.5 mph N/A   Mostly Cloudy
12:50 PM 21.2 °F 7.8 °F 17.6 °F 86% 30.13 in 9.0 mi SW 15.0 mph 23.0 mph N/A   Mostly Cloudy
1:10 PM 19.4 °F 4.5 °F 17.6 °F 93% 30.13 in 8.0 mi SW 17.3 mph 28.8 mph N/A   Scattered Clouds
1:30 PM 19.4 °F 4.5 °F 17.6 °F 93% 30.13 in 10.0 mi SSW 17.3 mph 25.3 mph N/A   Mostly Cloudy
1:50 PM 19.4 °F 6.6 °F 15.8 °F 86% 30.14 in 10.0 mi SW 12.7 mph 19.6 mph N/A   Mostly Cloudy
2:10 PM 19.4 °F 6.0 °F 15.8 °F 86% 30.14 in 9.0 mi SSW 13.8 mph 21.9 mph N/A   Overcast
2:30 PM 19.4 °F 6.6 °F 15.8 °F 86% 30.14 in 10.0 mi SSW 12.7 mph 18.4 mph N/A   Mostly Cloudy
2:50 PM 19.4 °F 6.6 °F 15.8 °F 86% 30.14 in 7.0 mi SSW 12.7 mph 26.5 mph N/A Snow Light Snow
3:10 PM 19.4 °F 7.9 °F 15.8 °F 86% 30.15 in 9.0 mi SW 10.4 mph 21.9 mph N/A   Overcast
3:30 PM 19.4 °F 6.6 °F 15.8 °F 86% 30.15 in 1.0 mi SSW 12.7 mph 18.4 mph N/A Snow Light Snow
3:50 PM 19.4 °F 8.6 °F 15.8 °F 86% 30.15 in 1.5 mi SSW 9.2 mph - N/A Snow Light Snow
4:10 PM 19.4 °F 7.9 °F 15.8 °F 86% 30.15 in 1.5 mi SSW 10.4 mph - N/A Snow Light Snow
4:30 PM 19.4 °F 9.5 °F 15.8 °F 86% 30.15 in 1.2 mi SW 8.1 mph - N/A Snow Light Snow
4:50 PM 19.4 °F 7.9 °F 15.8 °F 86% 30.15 in 1.5 mi SSW 10.4 mph 16.1 mph N/A Snow Light Snow
5:10 PM 19.4 °F 7.2 °F 15.8 °F 86% 30.15 in 2.5 mi SSW 11.5 mph 18.4 mph N/A Snow Light Snow
5:30 PM 19.4 °F 9.5 °F 15.8 °F 86% 30.16 in 3.0 mi SSW 8.1 mph 16.1 mph N/A Snow Light Snow
5:50 PM 19.4 °F 9.5 °F 15.8 °F 86% 30.16 in 4.0 mi SW 8.1 mph 16.1 mph N/A Snow Light Snow
6:10 PM 19.4 °F 10.4 °F 15.8 °F 86% 30.16 in 5.0 mi SW 6.9 mph - N/A Snow Light Snow
6:30 PM 19.4 °F 10.4 °F 17.6 °F 93% 30.16 in 3.0 mi SW 6.9 mph - N/A Snow Light Snow
6:50 PM 19.4 °F 8.6 °F 17.6 °F 93% 30.17 in 2.0 mi SSW 9.2 mph - N/A Snow Light Snow
7:10 PM 19.4 °F 9.5 °F 17.6 °F 93% 30.17 in 1.2 mi SW 8.1 mph - N/A Snow Light Snow
7:30 PM 21.2 °F 10.1 °F 17.6 °F 86% 30.17 in 5.0 mi SW 10.4 mph 18.4 mph N/A   Overcast
7:50 PM 19.4 °F 7.2 °F 17.6 °F 93% 30.17 in 4.0 mi SSW 11.5 mph - N/A Snow Light Snow
8:10 PM 19.4 °F 8.6 °F 17.6 °F 93% 30.17 in 2.5 mi SW 9.2 mph 16.1 mph N/A Snow Light Snow
8:30 PM 19.4 °F 6.6 °F 17.6 °F 93% 30.17 in 3.0 mi SSW 12.7 mph - N/A Snow Light Snow
8:50 PM 21.2 °F 10.1 °F 17.6 °F 86% 30.17 in 10.0 mi SSW 10.4 mph - N/A   Overcast
9:10 PM 21.2 °F 10.9 °F 17.6 °F 86% 30.17 in 4.0 mi SW 9.2 mph 17.3 mph N/A Snow Light Snow
9:30 PM 21.2 °F 10.9 °F 17.6 °F 86% 30.18 in 10.0 mi SSW 9.2 mph - N/A   Overcast
9:50 PM 21.2 °F 8.3 °F 17.6 °F 86% 30.18 in 10.0 mi SSW 13.8 mph 19.6 mph N/A   Overcast
10:10 PM 21.2 °F - 17.6 °F 86% 30.18 in 7.0 mi Calm Calm - N/A Snow Light Snow
10:30 PM 21.2 °F 10.1 °F 17.6 °F 86% 30.17 in 10.0 mi SW 10.4 mph - N/A   Overcast
10:50 PM 21.2 °F 10.9 °F 17.6 °F 86% 30.17 in 10.0 mi SW 9.2 mph - N/A Snow Light Snow
11:10 PM 23.0 °F 14.7 °F 17.6 °F 80% 30.17 in 4.0 mi WSW 6.9 mph - N/A Snow Light Snow
11:30 PM 23.0 °F 11.7 °F 17.6 °F 80% 30.17 in 7.0 mi WSW 11.5 mph 16.1 mph N/A Snow Light Snow
11:50 PM 23.0 °F 13.9 °F 17.6 °F 80% 30.17 in 5.0 mi SW 8.1 mph 16.1 mph N/A Snow Light Snow